TPC346 CYHU-CYVP

Flight info

Callsign TPC346
Flight time 4h 55m
Altitude 11000
Route TAMKO Q903 IKNAR
Aircraft C208/L-SDFGR/C

Departure

Time 2026-05-09 13:07
Airport Montréal / Saint-Hubert Metropolitan Airport (CYHU)

Arrival

Time 2026-05-09 18:02
Airport Kuujjuaq Airport (CYVP)
Time Latitude Longitude Altitude Speed Heading
2026-05-09 13:07 45.58083 -73.47450 1925 ft 142 kts 324°
2026-05-09 13:07 45.58904 -73.48206 2107 ft 139 kts 322°
2026-05-09 13:07 45.59695 -73.48945 2333 ft 134 kts 322°
2026-05-09 13:08 45.60464 -73.49657 2556 ft 130 kts 321°
2026-05-09 13:08 45.61216 -73.50353 2776 ft 128 kts 321°
2026-05-09 13:08 45.61963 -73.51049 3013 ft 130 kts 322°
2026-05-09 13:08 45.62714 -73.51737 3229 ft 127 kts 320°
2026-05-09 13:09 45.63448 -73.52419 3457 ft 127 kts 321°
2026-05-09 13:09 45.64189 -73.53103 3681 ft 127 kts 320°
2026-05-09 13:09 45.64929 -73.53788 3914 ft 127 kts 321°
2026-05-09 13:09 45.65673 -73.54477 4144 ft 128 kts 320°
2026-05-09 13:10 45.66412 -73.55164 4370 ft 125 kts 320°
2026-05-09 13:10 45.67133 -73.55830 4598 ft 122 kts 320°
2026-05-09 13:10 45.67842 -73.56487 4820 ft 120 kts 320°
2026-05-09 13:10 45.68306 -73.56916 4967 ft 119 kts 320°
2026-05-09 13:11 45.68994 -73.57555 5195 ft 117 kts 319°
2026-05-09 13:11 45.69670 -73.58183 5417 ft 115 kts 318°
2026-05-09 13:11 45.70331 -73.58798 5641 ft 112 kts 318°
2026-05-09 13:11 45.70990 -73.59410 5870 ft 113 kts 318°
2026-05-09 13:12 45.71639 -73.60011 6102 ft 109 kts 317°
2026-05-09 13:12 45.72268 -73.60597 6326 ft 107 kts 317°
2026-05-09 13:12 45.72887 -73.61172 6546 ft 105 kts 317°
2026-05-09 13:12 45.73491 -73.61735 6759 ft 103 kts 316°
2026-05-09 13:13 45.74080 -73.62281 6975 ft 99 kts 316°
2026-05-09 13:13 45.74646 -73.62809 7176 ft 95 kts 316°
2026-05-09 13:13 45.75182 -73.63310 7373 ft 91 kts 315°
2026-05-09 13:13 45.75698 -73.63793 7581 ft 86 kts 315°
2026-05-09 13:14 45.76184 -73.64251 7751 ft 83 kts 314°
2026-05-09 13:14 45.76666 -73.64700 7887 ft 83 kts 315°
2026-05-09 13:16 45.80007 -73.67799 9040 ft 84 kts 315°
2026-05-09 13:16 45.80495 -73.68252 9226 ft 83 kts 314°
2026-05-09 13:16 45.80982 -73.68705 9402 ft 83 kts 315°
2026-05-09 13:16 45.81476 -73.69166 9587 ft 87 kts 316°
2026-05-09 13:17 45.81988 -73.69641 9773 ft 88 kts 316°
2026-05-09 13:17 45.82505 -73.70122 9943 ft 89 kts 315°
2026-05-09 13:17 45.83032 -73.70613 10117 ft 91 kts 316°
2026-05-09 13:17 45.83565 -73.71111 10277 ft 94 kts 316°
2026-05-09 13:18 45.84126 -73.71637 10460 ft 97 kts 316°
2026-05-09 13:18 45.84705 -73.72176 10633 ft 101 kts 317°
2026-05-09 13:18 45.85311 -73.72746 10705 ft 113 kts 317°
2026-05-09 13:18 45.85988 -73.73375 10874 ft 117 kts 318°
2026-05-09 13:19 45.86678 -73.74017 11053 ft 119 kts 318°
2026-05-09 13:19 45.87379 -73.74672 11230 ft 121 kts 318°
2026-05-09 13:19 45.88093 -73.75338 11399 ft 123 kts 318°
2026-05-09 13:19 45.88816 -73.76014 11567 ft 125 kts 319°
2026-05-09 13:20 45.89546 -73.76697 11730 ft 125 kts 319°
2026-05-09 13:20 45.90277 -73.77381 11894 ft 125 kts 318°
2026-05-09 13:20 45.91009 -73.78067 12052 ft 126 kts 319°
2026-05-09 13:20 45.91744 -73.78755 12214 ft 126 kts 319°
2026-05-09 13:21 45.92481 -73.79446 12376 ft 127 kts 319°
2026-05-09 13:21 45.93218 -73.80137 12538 ft 126 kts 319°
2026-05-09 13:21 45.93954 -73.80826 12684 ft 128 kts 319°
2026-05-09 13:21 45.94727 -73.81552 12696 ft 136 kts 319°
2026-05-09 13:22 45.95528 -73.82301 12688 ft 139 kts 319°
2026-05-09 13:22 45.96341 -73.83067 12695 ft 140 kts 319°
2026-05-09 13:22 45.97160 -73.83836 12694 ft 142 kts 320°
2026-05-09 13:23 46.00840 -73.85565 12693 ft 164 kts
2026-05-09 13:23 46.01926 -73.85101 12695 ft 162 kts
2026-05-09 13:24 46.03024 -73.84710 12699 ft 163 kts
2026-05-09 13:24 46.04133 -73.84329 12692 ft 164 kts
2026-05-09 13:24 46.05240 -73.83950 12694 ft 163 kts
2026-05-09 13:24 46.06343 -73.83572 12695 ft 162 kts
2026-05-09 13:25 46.07449 -73.83195 12685 ft 164 kts
2026-05-09 13:25 46.08560 -73.82814 12685 ft 164 kts
2026-05-09 13:25 46.10780 -73.82056 12687 ft 163 kts
2026-05-09 13:26 46.11887 -73.81674 12683 ft 164 kts
2026-05-09 13:26 46.12997 -73.81294 12682 ft 164 kts
2026-05-09 13:26 46.14104 -73.80914 12682 ft 164 kts
2026-05-09 13:26 46.15212 -73.80534 12684 ft 164 kts
2026-05-09 13:27 46.16322 -73.80153 12686 ft 164 kts
2026-05-09 13:27 46.17416 -73.79778 12685 ft 164 kts
2026-05-09 13:27 46.18526 -73.79398 12684 ft 164 kts
2026-05-09 13:27 46.19635 -73.79015 12683 ft 163 kts
2026-05-09 13:28 46.20737 -73.78638 12682 ft 163 kts
2026-05-09 13:28 46.21846 -73.78255 12683 ft 164 kts
2026-05-09 13:28 46.22961 -73.77872 12688 ft 165 kts
2026-05-09 13:28 46.24076 -73.77489 12686 ft 164 kts
2026-05-09 13:29 46.25188 -73.77104 12686 ft 164 kts
2026-05-09 13:29 46.26298 -73.76722 12687 ft 164 kts
2026-05-09 13:29 46.27412 -73.76339 12687 ft 164 kts
2026-05-09 13:29 46.28523 -73.75956 12690 ft 165 kts
2026-05-09 13:30 46.29640 -73.75571 12688 ft 165 kts
2026-05-09 13:30 46.30756 -73.75185 12685 ft 165 kts
2026-05-09 13:30 46.31859 -73.74804 12685 ft 165 kts
2026-05-09 13:30 46.32992 -73.74413 12685 ft 165 kts
2026-05-09 13:31 46.34110 -73.74027 12686 ft 165 kts
2026-05-09 13:31 46.35229 -73.73641 12686 ft 165 kts
2026-05-09 13:31 46.36351 -73.73251 12686 ft 166 kts
2026-05-09 13:31 46.37474 -73.72864 12687 ft 166 kts
2026-05-09 13:32 46.38579 -73.72482 12682 ft 165 kts
2026-05-09 13:32 46.40803 -73.71711 12677 ft 163 kts
2026-05-09 13:32 46.41911 -73.71328 12683 ft 164 kts
2026-05-09 13:33 46.43030 -73.70940 12684 ft 166 kts
2026-05-09 13:33 46.44153 -73.70551 12685 ft 166 kts
2026-05-09 13:33 46.45273 -73.70161 12687 ft 166 kts
2026-05-09 13:33 46.46393 -73.69772 12680 ft 165 kts
2026-05-09 13:34 46.47510 -73.69384 12678 ft 165 kts
2026-05-09 13:34 46.48624 -73.68998 12668 ft 164 kts
2026-05-09 13:34 46.49736 -73.68612 12667 ft 164 kts
2026-05-09 13:34 46.50845 -73.68226 12666 ft 164 kts
2026-05-09 13:35 46.51949 -73.67840 12713 ft 160 kts
2026-05-09 13:35 46.52986 -73.67477 12834 ft 152 kts
2026-05-09 13:35 46.54002 -73.67129 12904 ft 151 kts
2026-05-09 13:35 46.55040 -73.66771 12905 ft 155 kts
2026-05-09 13:36 46.56093 -73.66403 12908 ft 157 kts
2026-05-09 13:36 46.57159 -73.66030 12911 ft 158 kts
2026-05-09 13:36 46.58236 -73.65653 12918 ft 159 kts
2026-05-09 13:36 46.59320 -73.65276 12916 ft 161 kts
2026-05-09 13:37 46.60408 -73.64896 12916 ft 162 kts
2026-05-09 13:37 46.61503 -73.64513 12919 ft 162 kts
2026-05-09 13:37 46.62602 -73.64129 12917 ft 163 kts
2026-05-09 13:37 46.63708 -73.63743 12906 ft 164 kts
2026-05-09 13:38 46.64817 -73.63355 12910 ft 164 kts
2026-05-09 13:38 46.65926 -73.62967 12910 ft 164 kts
2026-05-09 13:38 46.67036 -73.62577 12913 ft 164 kts
2026-05-09 13:38 46.68149 -73.62188 12912 ft 164 kts
2026-05-09 13:39 46.69260 -73.61800 12913 ft 164 kts
2026-05-09 13:39 46.70356 -73.61416 12907 ft 163 kts
2026-05-09 13:39 46.71460 -73.61029 12908 ft 164 kts
2026-05-09 13:39 46.72566 -73.60641 12908 ft 163 kts
2026-05-09 13:40 46.73664 -73.60257 12901 ft 161 kts
2026-05-09 13:40 46.74754 -73.59875 12886 ft 161 kts
2026-05-09 13:40 46.75839 -73.59496 12895 ft 161 kts
2026-05-09 13:40 46.76927 -73.59114 12897 ft 160 kts
2026-05-09 13:41 46.78012 -73.58733 12897 ft 160 kts
2026-05-09 13:41 46.79094 -73.58352 12895 ft 160 kts
2026-05-09 13:41 46.80172 -73.57973 12894 ft 159 kts
2026-05-09 13:41 46.81252 -73.57594 12894 ft 160 kts
2026-05-09 13:42 46.82332 -73.57214 12909 ft 160 kts
2026-05-09 13:42 46.83409 -73.56834 12906 ft 159 kts
2026-05-09 13:42 46.84489 -73.56455 12907 ft 159 kts
2026-05-09 13:42 46.85571 -73.56073 12906 ft 160 kts
2026-05-09 13:43 46.86654 -73.55691 12904 ft 160 kts
2026-05-09 13:43 46.87721 -73.55315 12893 ft 160 kts
2026-05-09 13:43 46.88806 -73.54993 12894 ft 158 kts 359°
2026-05-09 13:43 46.89891 -73.54730 12903 ft 158 kts 360°
2026-05-09 13:44 46.90969 -73.54453 12895 ft 157 kts
2026-05-09 13:44 46.92040 -73.54172 12896 ft 156 kts 360°
2026-05-09 13:44 46.93102 -73.53893 12892 ft 155 kts 360°
2026-05-09 13:44 46.94162 -73.53615 12885 ft 155 kts
2026-05-09 13:45 46.95222 -73.53335 12884 ft 155 kts 360°
2026-05-09 13:45 46.96282 -73.53054 12884 ft 154 kts 360°
2026-05-09 13:45 46.97341 -73.52776 12883 ft 155 kts
2026-05-09 13:45 46.98402 -73.52495 12889 ft 155 kts 360°
2026-05-09 13:46 46.99465 -73.52214 12891 ft 155 kts 360°
2026-05-09 13:46 47.00530 -73.51933 12892 ft 156 kts
2026-05-09 13:46 47.01600 -73.51650 12893 ft 156 kts
2026-05-09 13:46 47.02669 -73.51367 12894 ft 156 kts
2026-05-09 13:47 47.03740 -73.51084 12903 ft 157 kts 360°
2026-05-09 13:47 47.04805 -73.50802 12902 ft 158 kts
2026-05-09 13:47 47.05882 -73.50517 12903 ft 157 kts
2026-05-09 13:47 47.06961 -73.50231 12904 ft 157 kts
2026-05-09 13:48 47.08037 -73.49945 12895 ft 157 kts
2026-05-09 13:48 47.09114 -73.49660 12900 ft 157 kts 360°
2026-05-09 13:48 47.10191 -73.49375 12903 ft 158 kts
2026-05-09 13:48 47.11276 -73.49087 12885 ft 159 kts
2026-05-09 13:49 47.12356 -73.48799 12882 ft 157 kts
2026-05-09 13:49 47.13434 -73.48513 12884 ft 157 kts 360°
2026-05-09 13:49 47.14512 -73.48228 12882 ft 157 kts
2026-05-09 13:49 47.15589 -73.47941 12881 ft 157 kts
2026-05-09 13:50 47.16667 -73.47653 12876 ft 157 kts
2026-05-09 13:50 47.17744 -73.47368 12883 ft 157 kts
2026-05-09 13:50 47.18808 -73.47085 12884 ft 158 kts
2026-05-09 13:50 47.19889 -73.46797 12877 ft 158 kts
2026-05-09 13:51 47.20972 -73.46508 12884 ft 158 kts
2026-05-09 13:51 47.22053 -73.46220 12886 ft 158 kts
2026-05-09 13:51 47.23136 -73.45931 12884 ft 158 kts
2026-05-09 13:51 47.24222 -73.45643 12880 ft 159 kts
2026-05-09 13:52 47.25311 -73.45352 12886 ft 159 kts
2026-05-09 13:52 47.26400 -73.45060 12885 ft 159 kts 360°
2026-05-09 13:52 47.27489 -73.44770 12886 ft 159 kts 360°
2026-05-09 13:52 47.28580 -73.44479 12884 ft 159 kts
2026-05-09 13:53 47.29671 -73.44187 12885 ft 159 kts
2026-05-09 13:53 47.30762 -73.43894 12885 ft 159 kts
2026-05-09 13:53 47.31851 -73.43605 12884 ft 159 kts
2026-05-09 13:53 47.32942 -73.43313 12885 ft 160 kts
2026-05-09 13:54 47.34035 -73.43020 12885 ft 159 kts
2026-05-09 13:54 47.35120 -73.42729 12884 ft 158 kts
2026-05-09 13:54 47.36202 -73.42439 12884 ft 159 kts
2026-05-09 13:54 47.37291 -73.42147 12882 ft 159 kts
2026-05-09 13:55 47.38379 -73.41856 12879 ft 159 kts
2026-05-09 13:55 47.39467 -73.41564 12879 ft 159 kts
2026-05-09 13:55 47.40544 -73.41275 12880 ft 159 kts
2026-05-09 13:55 47.41634 -73.40982 12878 ft 159 kts
2026-05-09 13:56 47.42714 -73.40692 12877 ft 157 kts
2026-05-09 13:56 47.43796 -73.40403 12878 ft 159 kts
2026-05-09 13:56 47.44886 -73.40110 12885 ft 160 kts
2026-05-09 13:56 47.45983 -73.39813 12886 ft 161 kts
2026-05-09 13:57 47.47081 -73.39518 12885 ft 160 kts
2026-05-09 13:57 47.48178 -73.39223 12883 ft 161 kts
2026-05-09 13:57 47.49281 -73.38923 12888 ft 162 kts
2026-05-09 13:57 47.50390 -73.38626 12886 ft 162 kts
2026-05-09 13:58 47.51498 -73.38329 12885 ft 162 kts
2026-05-09 13:58 47.52602 -73.38030 12884 ft 161 kts
2026-05-09 13:58 47.53344 -73.37830 12884 ft 161 kts
2026-05-09 13:58 47.54445 -73.37533 12884 ft 161 kts
2026-05-09 13:59 47.55530 -73.37241 12884 ft 161 kts
2026-05-09 13:59 47.56632 -73.36943 12882 ft 160 kts
2026-05-09 13:59 47.57728 -73.36646 12882 ft 160 kts
2026-05-09 13:59 47.58828 -73.36348 12882 ft 161 kts
2026-05-09 14:00 47.59928 -73.36052 12882 ft 160 kts
2026-05-09 14:00 47.60670 -73.35855 12883 ft 161 kts
2026-05-09 14:00 47.62129 -73.35457 12881 ft 161 kts
2026-05-09 14:00 47.63228 -73.35159 12873 ft 160 kts
2026-05-09 14:01 47.64327 -73.34862 12873 ft 160 kts
2026-05-09 14:01 47.65426 -73.34564 12873 ft 161 kts
2026-05-09 14:01 47.66528 -73.34265 12873 ft 161 kts
2026-05-09 14:01 47.67630 -73.33967 12872 ft 161 kts
2026-05-09 14:02 47.68729 -73.33669 12867 ft 160 kts
2026-05-09 14:02 47.69828 -73.33370 12862 ft 160 kts
2026-05-09 14:02 47.70918 -73.33074 12863 ft 159 kts
2026-05-09 14:02 47.72008 -73.32775 12863 ft 160 kts
2026-05-09 14:03 47.73097 -73.32363 12869 ft 162 kts
2026-05-09 14:03 47.74184 -73.31906 12870 ft 163 kts
2026-05-09 14:03 47.75270 -73.31455 12868 ft 161 kts
2026-05-09 14:03 47.76350 -73.31010 12867 ft 161 kts
2026-05-09 14:04 47.77421 -73.30569 12866 ft 162 kts
2026-05-09 14:04 47.78511 -73.30119 12870 ft 164 kts
2026-05-09 14:04 47.79616 -73.29662 12872 ft 165 kts
2026-05-09 14:04 47.80723 -73.29205 12869 ft 165 kts
2026-05-09 14:05 47.81824 -73.28755 12879 ft 165 kts
2026-05-09 14:05 47.82937 -73.28288 12878 ft 167 kts
2026-05-09 14:05 47.84062 -73.27822 12878 ft 169 kts
2026-05-09 14:05 47.85193 -73.27356 12889 ft 169 kts
2026-05-09 14:06 47.86331 -73.26883 12881 ft 170 kts
2026-05-09 14:06 47.87468 -73.26413 12881 ft 169 kts
2026-05-09 14:06 47.88603 -73.25945 12882 ft 170 kts
2026-05-09 14:06 47.89743 -73.25472 12879 ft 170 kts
2026-05-09 14:07 47.90884 -73.24998 12879 ft 170 kts
2026-05-09 14:07 47.92024 -73.24525 12878 ft 170 kts
2026-05-09 14:07 47.93162 -73.24053 12878 ft 170 kts
2026-05-09 14:07 47.94297 -73.23583 12880 ft 169 kts
2026-05-09 14:08 47.95430 -73.23112 12879 ft 170 kts
2026-05-09 14:08 47.96569 -73.22638 12879 ft 170 kts
2026-05-09 14:08 47.97712 -73.22164 12880 ft 171 kts
2026-05-09 14:08 47.98856 -73.21686 12880 ft 170 kts
2026-05-09 14:09 47.99998 -73.21215 12882 ft 170 kts
2026-05-09 14:09 48.01142 -73.20737 12878 ft 171 kts
2026-05-09 14:09 48.02286 -73.20259 12882 ft 170 kts
2026-05-09 14:09 48.03428 -73.19780 12881 ft 171 kts
2026-05-09 14:10 48.05726 -73.18826 12879 ft 171 kts
2026-05-09 14:10 48.06877 -73.18346 12876 ft 172 kts
2026-05-09 14:10 48.08025 -73.17867 12873 ft 171 kts
2026-05-09 14:11 48.09151 -73.17401 12872 ft 169 kts
2026-05-09 14:11 48.10301 -73.16917 12872 ft 170 kts
2026-05-09 14:11 48.11422 -73.16447 12868 ft 169 kts
2026-05-09 14:11 48.12560 -73.15973 12870 ft 170 kts
2026-05-09 14:12 48.13702 -73.15496 12866 ft 170 kts
2026-05-09 14:12 48.14860 -73.15009 12866 ft 171 kts
2026-05-09 14:12 48.15991 -73.14536 12867 ft 171 kts
2026-05-09 14:12 48.17138 -73.14055 12867 ft 171 kts
2026-05-09 14:13 48.18281 -73.13580 12863 ft 170 kts
2026-05-09 14:14 48.26233 -73.10237 12860 ft 169 kts
2026-05-09 14:15 48.27367 -73.09760 12874 ft 169 kts
2026-05-09 14:15 48.28501 -73.09283 12870 ft 169 kts
2026-05-09 14:15 48.29638 -73.08806 12875 ft 170 kts
2026-05-09 14:15 48.30779 -73.08322 12874 ft 171 kts
2026-05-09 14:16 48.31925 -73.07836 12876 ft 171 kts
2026-05-09 14:16 48.33074 -73.07359 12873 ft 171 kts
2026-05-09 14:16 48.34221 -73.06874 12873 ft 171 kts
2026-05-09 14:16 48.35368 -73.06390 12873 ft 171 kts
2026-05-09 14:17 48.36512 -73.05906 12873 ft 171 kts
2026-05-09 14:17 48.37660 -73.05422 12872 ft 171 kts
2026-05-09 14:17 48.38793 -73.04942 12873 ft 171 kts
2026-05-09 14:17 48.39942 -73.04455 12871 ft 171 kts
2026-05-09 14:18 48.41087 -73.03971 12868 ft 171 kts
2026-05-09 14:18 48.42229 -73.03489 12867 ft 170 kts
2026-05-09 14:18 48.43369 -73.03007 12869 ft 171 kts
2026-05-09 14:18 48.44515 -73.02521 12861 ft 171 kts
2026-05-09 14:19 48.45661 -73.02034 12861 ft 171 kts
2026-05-09 14:19 48.46810 -73.01547 12864 ft 171 kts
2026-05-09 14:19 48.47958 -73.01061 12864 ft 172 kts
2026-05-09 14:19 48.49112 -73.00573 12861 ft 173 kts
2026-05-09 14:20 48.50273 -73.00081 12859 ft 173 kts
2026-05-09 14:20 48.51430 -72.99587 12860 ft 173 kts
2026-05-09 14:20 48.52586 -72.99095 12854 ft 173 kts
2026-05-09 14:21 48.54892 -72.98116 12852 ft 172 kts
2026-05-09 14:21 48.56046 -72.97624 12848 ft 172 kts
2026-05-09 14:21 48.57184 -72.97140 12851 ft 172 kts
2026-05-09 14:21 48.58340 -72.96647 12850 ft 172 kts
2026-05-09 14:22 48.59491 -72.96156 12850 ft 172 kts
2026-05-09 14:22 48.60642 -72.95665 12849 ft 172 kts
2026-05-09 14:22 48.61790 -72.95177 12849 ft 171 kts
2026-05-09 14:22 48.62938 -72.94686 12846 ft 171 kts
2026-05-09 14:23 48.64083 -72.94201 12844 ft 172 kts
2026-05-09 14:23 48.65234 -72.93705 12845 ft 172 kts
2026-05-09 14:23 48.66386 -72.93213 12845 ft 172 kts
2026-05-09 14:23 48.67540 -72.92720 12846 ft 172 kts
2026-05-09 14:24 48.68693 -72.92226 12844 ft 172 kts
2026-05-09 14:24 48.69848 -72.91735 12856 ft 173 kts
2026-05-09 14:24 48.71013 -72.91235 12855 ft 174 kts
2026-05-09 14:24 48.72180 -72.90735 12856 ft 175 kts
2026-05-09 14:25 48.73353 -72.90230 12854 ft 176 kts
2026-05-09 14:25 48.74529 -72.89727 12855 ft 176 kts
2026-05-09 14:25 48.75705 -72.89221 12856 ft 176 kts
2026-05-09 14:25 48.76867 -72.88722 12855 ft 176 kts
2026-05-09 14:26 48.78045 -72.88216 12856 ft 176 kts
2026-05-09 14:26 48.79228 -72.87709 12853 ft 178 kts
2026-05-09 14:26 48.80421 -72.87195 12855 ft 178 kts
2026-05-09 14:26 48.81613 -72.86682 12850 ft 178 kts
2026-05-09 14:27 48.82802 -72.86170 12852 ft 177 kts
2026-05-09 14:27 48.83985 -72.85660 12851 ft 177 kts
2026-05-09 14:27 48.85166 -72.85153 12849 ft 176 kts
2026-05-09 14:27 48.86345 -72.84645 12850 ft 176 kts
2026-05-09 14:28 48.87522 -72.84138 12848 ft 176 kts
2026-05-09 14:28 48.88701 -72.83627 12848 ft 176 kts
2026-05-09 14:28 48.89878 -72.83119 12848 ft 176 kts
2026-05-09 14:28 48.91062 -72.82613 12850 ft 178 kts
2026-05-09 14:29 48.92257 -72.82097 12851 ft 180 kts
2026-05-09 14:29 48.93462 -72.81576 12850 ft 180 kts
2026-05-09 14:29 48.94669 -72.81049 12850 ft 180 kts
2026-05-09 14:29 48.95878 -72.80526 12851 ft 181 kts
2026-05-09 14:30 48.97086 -72.80003 12850 ft 181 kts
2026-05-09 14:30 48.98295 -72.79480 12848 ft 180 kts
2026-05-09 14:30 48.99502 -72.78958 12850 ft 180 kts
2026-05-09 14:30 49.00710 -72.78434 12851 ft 181 kts
2026-05-09 14:31 49.01923 -72.77908 12849 ft 181 kts
2026-05-09 14:31 49.03132 -72.77384 12848 ft 180 kts
2026-05-09 14:31 49.04339 -72.76860 12848 ft 180 kts
2026-05-09 14:31 49.05542 -72.76335 12847 ft 180 kts
2026-05-09 14:32 49.06729 -72.75824 12846 ft 180 kts
2026-05-09 14:32 49.07933 -72.75304 12845 ft 180 kts
2026-05-09 14:32 49.09137 -72.74769 12846 ft 181 kts
2026-05-09 14:32 49.10348 -72.74243 12850 ft 181 kts
2026-05-09 14:33 49.11560 -72.73717 12852 ft 181 kts
2026-05-09 14:33 49.12774 -72.73190 12862 ft 182 kts
2026-05-09 14:33 49.13990 -72.72660 12860 ft 182 kts 10°
2026-05-09 14:33 49.15208 -72.72129 12861 ft 182 kts 10°
2026-05-09 14:34 49.16427 -72.71595 12862 ft 183 kts 10°
2026-05-09 14:34 49.17651 -72.71062 12862 ft 182 kts 10°
2026-05-09 14:34 49.18872 -72.70527 12862 ft 183 kts 10°
2026-05-09 14:34 49.20102 -72.69991 12861 ft 184 kts 10°
2026-05-09 14:35 49.21328 -72.69454 12862 ft 183 kts 10°
2026-05-09 14:35 49.22551 -72.68919 12860 ft 183 kts 10°
2026-05-09 14:35 49.23771 -72.68385 12859 ft 182 kts 10°
2026-05-09 14:35 49.24990 -72.67851 12858 ft 182 kts 10°
2026-05-09 14:36 49.26210 -72.67316 12857 ft 182 kts 10°
2026-05-09 14:36 49.27426 -72.66784 12857 ft 182 kts 10°
2026-05-09 14:36 49.28645 -72.66249 12858 ft 183 kts 10°
2026-05-09 14:36 49.29867 -72.65712 12855 ft 183 kts 10°
2026-05-09 14:37 49.31090 -72.65176 12854 ft 182 kts 10°
2026-05-09 14:37 49.32309 -72.64641 12853 ft 182 kts 10°
2026-05-09 14:37 49.33515 -72.64112 12866 ft 183 kts 10°
2026-05-09 14:37 49.34749 -72.63570 12856 ft 185 kts 10°
2026-05-09 14:38 49.35984 -72.63022 12854 ft 185 kts 10°
2026-05-09 14:38 49.37222 -72.62478 12853 ft 185 kts 10°
2026-05-09 14:38 49.38463 -72.61930 12852 ft 185 kts 10°
2026-05-09 14:38 49.39700 -72.61387 12857 ft 185 kts 10°
2026-05-09 14:39 49.40941 -72.60840 12854 ft 186 kts 10°
2026-05-09 14:39 49.42181 -72.60292 12853 ft 185 kts 10°
2026-05-09 14:39 49.43418 -72.59752 12855 ft 185 kts 10°
2026-05-09 14:39 49.44659 -72.59199 12854 ft 185 kts 11°
2026-05-09 14:40 49.45899 -72.58648 12850 ft 186 kts 10°
2026-05-09 14:40 49.47141 -72.58101 12851 ft 186 kts 10°
2026-05-09 14:40 49.48371 -72.57556 12854 ft 187 kts 10°
2026-05-09 14:40 49.49617 -72.57005 12853 ft 186 kts 10°
2026-05-09 14:41 49.50863 -72.56452 12852 ft 186 kts 11°
2026-05-09 14:41 49.52108 -72.55902 12852 ft 186 kts 11°
2026-05-09 14:41 49.53349 -72.55355 12848 ft 185 kts 10°
2026-05-09 14:41 49.54580 -72.54811 12846 ft 184 kts 10°
2026-05-09 14:42 49.55812 -72.54259 12853 ft 185 kts 11°
2026-05-09 14:42 49.57051 -72.53709 12856 ft 186 kts 11°
2026-05-09 14:42 49.58292 -72.53160 12855 ft 185 kts 11°
2026-05-09 14:42 49.59533 -72.52608 12854 ft 186 kts 11°
2026-05-09 14:43 49.60774 -72.52057 12856 ft 186 kts 12°
2026-05-09 14:43 49.62017 -72.51499 12852 ft 186 kts 11°
2026-05-09 14:43 49.63261 -72.50945 12856 ft 186 kts 11°
2026-05-09 14:43 49.64507 -72.50388 12855 ft 186 kts 11°
2026-05-09 14:44 49.65753 -72.49838 12854 ft 186 kts 11°
2026-05-09 14:44 49.66998 -72.49284 12854 ft 187 kts 11°
2026-05-09 14:44 49.68244 -72.48726 12854 ft 186 kts 11°
2026-05-09 14:44 49.69069 -72.48358 12850 ft 186 kts 11°
2026-05-09 14:45 49.70312 -72.47803 12851 ft 186 kts 11°
2026-05-09 14:45 49.71957 -72.47069 12849 ft 186 kts 11°
2026-05-09 14:45 49.73195 -72.46516 12850 ft 185 kts 11°
2026-05-09 14:45 49.74437 -72.45961 12850 ft 186 kts 11°
2026-05-09 14:46 49.75276 -72.45584 12847 ft 186 kts 11°
2026-05-09 14:46 49.76515 -72.45030 12849 ft 185 kts 11°
2026-05-09 14:46 49.77759 -72.44473 12850 ft 186 kts 11°
2026-05-09 14:46 49.78987 -72.43920 12849 ft 186 kts 11°
2026-05-09 14:47 49.80230 -72.43363 12849 ft 186 kts 11°
2026-05-09 14:47 49.81473 -72.42807 12841 ft 186 kts 11°
2026-05-09 14:47 49.82714 -72.42250 12845 ft 186 kts 11°
2026-05-09 14:47 49.83959 -72.41690 12844 ft 186 kts 11°
2026-05-09 14:48 49.85200 -72.41133 12844 ft 185 kts 11°
2026-05-09 14:48 49.86441 -72.40575 12840 ft 185 kts 11°
2026-05-09 14:48 49.87682 -72.40017 12842 ft 185 kts 11°
2026-05-09 14:48 49.88918 -72.39461 12844 ft 185 kts 11°
2026-05-09 14:49 49.90158 -72.38903 12841 ft 186 kts 12°
2026-05-09 14:49 49.91400 -72.38341 12834 ft 185 kts 11°
2026-05-09 14:49 49.92638 -72.37785 12828 ft 185 kts 11°
2026-05-09 14:49 49.93876 -72.37227 12840 ft 186 kts 11°
2026-05-09 14:50 49.95120 -72.36662 12839 ft 186 kts 11°
2026-05-09 14:50 49.96364 -72.36102 12839 ft 186 kts 11°
2026-05-09 14:50 49.97607 -72.35542 12838 ft 186 kts 11°
2026-05-09 14:50 49.98848 -72.34981 12847 ft 186 kts 13°
2026-05-09 14:51 50.00076 -72.34425 12840 ft 186 kts 13°
2026-05-09 14:51 50.01320 -72.33862 12840 ft 186 kts 13°
2026-05-09 14:51 50.02563 -72.33299 12842 ft 186 kts 13°
2026-05-09 14:51 50.03808 -72.32735 12841 ft 186 kts 13°
2026-05-09 14:52 50.05053 -72.32171 12842 ft 186 kts 13°
2026-05-09 14:52 50.06294 -72.31607 12841 ft 186 kts 13°
2026-05-09 14:52 50.07537 -72.31044 12841 ft 186 kts 12°
2026-05-09 14:52 50.08779 -72.30482 12840 ft 186 kts 13°
2026-05-09 14:53 50.10021 -72.29916 12841 ft 186 kts 13°
2026-05-09 14:53 50.11268 -72.29349 12837 ft 187 kts 13°
2026-05-09 14:53 50.12517 -72.28781 12841 ft 187 kts 13°
2026-05-09 14:53 50.13764 -72.28214 12843 ft 187 kts 13°
2026-05-09 14:54 50.15011 -72.27646 12837 ft 186 kts 13°
2026-05-09 14:54 50.16256 -72.27079 12837 ft 186 kts 13°
2026-05-09 14:54 50.17497 -72.26514 12828 ft 186 kts 13°
2026-05-09 14:54 50.18738 -72.25948 12835 ft 186 kts 13°
2026-05-09 14:55 50.19982 -72.25382 12832 ft 186 kts 13°
2026-05-09 14:55 50.21227 -72.24813 12843 ft 187 kts 13°
2026-05-09 14:55 50.22473 -72.24242 12847 ft 187 kts 13°
2026-05-09 14:55 50.23721 -72.23672 12846 ft 186 kts 13°
2026-05-09 14:56 50.24968 -72.23103 12847 ft 186 kts 13°
2026-05-09 14:56 50.26212 -72.22534 12850 ft 187 kts 13°
2026-05-09 14:56 50.27445 -72.21969 12843 ft 187 kts 13°
2026-05-09 14:56 50.28710 -72.21390 12850 ft 187 kts 13°
2026-05-09 14:57 50.29959 -72.20817 12845 ft 186 kts 13°
2026-05-09 14:57 50.31187 -72.20255 12845 ft 186 kts 13°
2026-05-09 14:57 50.32431 -72.19684 12839 ft 186 kts 13°
2026-05-09 14:57 50.33677 -72.19113 12845 ft 187 kts 13°
2026-05-09 14:58 50.34927 -72.18538 12843 ft 187 kts 13°
2026-05-09 14:58 50.36177 -72.17964 12847 ft 188 kts 13°
2026-05-09 14:58 50.37435 -72.17385 12845 ft 189 kts 13°
2026-05-09 14:58 50.38693 -72.16806 12843 ft 188 kts 13°
2026-05-09 14:59 50.39945 -72.16231 12843 ft 187 kts 13°
2026-05-09 14:59 50.41197 -72.15653 12844 ft 188 kts 13°
2026-05-09 14:59 50.42450 -72.15077 12844 ft 188 kts 13°
2026-05-09 14:59 50.43706 -72.14489 12842 ft 188 kts 12°
2026-05-09 15:00 50.44956 -72.13917 12844 ft 187 kts 11°
2026-05-09 15:00 50.46198 -72.13352 12842 ft 185 kts 12°
2026-05-09 15:00 50.47431 -72.12780 12845 ft 186 kts 12°
2026-05-09 15:00 50.48672 -72.12206 12840 ft 186 kts 12°
2026-05-09 15:01 50.51154 -72.11058 12840 ft 185 kts 12°
2026-05-09 15:01 50.52376 -72.10493 12842 ft 186 kts 12°
2026-05-09 15:01 50.53615 -72.09922 12840 ft 186 kts 12°
2026-05-09 15:02 50.54853 -72.09347 12838 ft 186 kts 12°
2026-05-09 15:02 50.56094 -72.08769 12838 ft 186 kts 12°
2026-05-09 15:02 50.57338 -72.08194 12838 ft 187 kts 12°
2026-05-09 15:02 50.58581 -72.07615 12839 ft 186 kts 12°
2026-05-09 15:03 50.59822 -72.07040 12838 ft 185 kts 12°
2026-05-09 15:03 50.61057 -72.06467 12838 ft 185 kts 12°
2026-05-09 15:03 50.62290 -72.05894 12838 ft 185 kts 12°
2026-05-09 15:03 50.63522 -72.05323 12838 ft 185 kts 12°
2026-05-09 15:04 50.64756 -72.04745 12833 ft 185 kts 12°
2026-05-09 15:04 50.65991 -72.04171 12844 ft 185 kts 12°
2026-05-09 15:06 50.74666 -72.00124 12836 ft 185 kts 12°
2026-05-09 15:06 50.75903 -71.99548 12832 ft 186 kts 12°
2026-05-09 15:06 50.77139 -71.98968 12832 ft 185 kts 12°
2026-05-09 15:06 50.78371 -71.98390 12831 ft 185 kts 12°
2026-05-09 15:07 50.79600 -71.97815 12830 ft 184 kts 12°
2026-05-09 15:07 50.80830 -71.97240 12831 ft 184 kts 12°
2026-05-09 15:07 50.82064 -71.96661 12831 ft 185 kts 12°
2026-05-09 15:07 50.83300 -71.96081 12831 ft 185 kts 12°
2026-05-09 15:08 50.84535 -71.95501 12830 ft 185 kts 12°
2026-05-09 15:08 50.87008 -71.94339 12831 ft 186 kts 12°
2026-05-09 15:08 50.88250 -71.93755 12834 ft 186 kts 11°
2026-05-09 15:09 50.89475 -71.93178 12832 ft 186 kts 11°
2026-05-09 15:10 50.98127 -71.89101 12830 ft 185 kts 11°
2026-05-09 15:11 50.99360 -71.88518 12834 ft 184 kts 11°
2026-05-09 15:11 51.00587 -71.87938 12832 ft 184 kts 11°
2026-05-09 15:11 51.01816 -71.87357 12833 ft 184 kts 11°
2026-05-09 15:11 51.03048 -71.86772 12834 ft 185 kts 11°
2026-05-09 15:12 51.04287 -71.86183 12837 ft 186 kts 11°
2026-05-09 15:12 51.05529 -71.85596 12838 ft 186 kts 11°
2026-05-09 15:12 51.06769 -71.85009 12835 ft 186 kts 11°
2026-05-09 15:12 51.08009 -71.84421 12837 ft 186 kts 11°
2026-05-09 15:13 51.09246 -71.83833 12837 ft 186 kts 11°
2026-05-09 15:13 51.10482 -71.83247 12842 ft 186 kts 12°
2026-05-09 15:13 51.11719 -71.82659 12841 ft 186 kts 12°
2026-05-09 15:13 51.12956 -71.82071 12841 ft 185 kts 12°
2026-05-09 15:14 51.14192 -71.81482 12838 ft 185 kts 12°
2026-05-09 15:14 51.15429 -71.80894 12842 ft 185 kts 12°
2026-05-09 15:14 51.16650 -71.80312 12841 ft 186 kts 12°
2026-05-09 15:14 51.17889 -71.79719 12841 ft 186 kts 12°
2026-05-09 15:15 51.19126 -71.79133 12841 ft 186 kts 12°
2026-05-09 15:15 51.19963 -71.78734 12842 ft 186 kts 12°
2026-05-09 15:15 51.21606 -71.77950 12841 ft 186 kts 12°
2026-05-09 15:15 51.22847 -71.77356 12842 ft 186 kts 12°
2026-05-09 15:16 51.24091 -71.76761 12838 ft 186 kts 12°
2026-05-09 15:16 51.25329 -71.76171 12838 ft 186 kts 12°
2026-05-09 15:16 51.26567 -71.75578 12837 ft 186 kts 12°
2026-05-09 15:16 51.27807 -71.74982 12837 ft 186 kts 12°
2026-05-09 15:17 51.29047 -71.74390 12835 ft 186 kts 12°
2026-05-09 15:17 51.30290 -71.73794 12836 ft 187 kts 12°
2026-05-09 15:17 51.31534 -71.73197 12835 ft 187 kts 12°
2026-05-09 15:17 51.32778 -71.72601 12851 ft 186 kts 12°
2026-05-09 15:18 51.34018 -71.72001 12847 ft 186 kts 12°
2026-05-09 15:18 51.35254 -71.71411 12847 ft 185 kts 12°
2026-05-09 15:18 51.36481 -71.70822 12846 ft 184 kts 12°
2026-05-09 15:18 51.37693 -71.70240 12845 ft 184 kts 12°
2026-05-09 15:19 51.38921 -71.69649 12843 ft 185 kts 12°
2026-05-09 15:19 51.40154 -71.69055 12842 ft 185 kts 12°
2026-05-09 15:19 51.41383 -71.68462 12841 ft 184 kts 12°
2026-05-09 15:19 51.42607 -71.67874 12840 ft 184 kts 12°
2026-05-09 15:20 51.43830 -71.67285 12839 ft 183 kts 12°
2026-05-09 15:20 51.46278 -71.66103 12836 ft 184 kts 12°
2026-05-09 15:20 51.47506 -71.65510 12835 ft 184 kts 12°
2026-05-09 15:21 51.48732 -71.64916 12834 ft 184 kts 12°
2026-05-09 15:21 51.49956 -71.64326 12833 ft 184 kts 12°
2026-05-09 15:21 51.51179 -71.63733 12837 ft 184 kts 12°
2026-05-09 15:21 51.52404 -71.63141 12836 ft 184 kts 12°
2026-05-09 15:22 51.53626 -71.62549 12832 ft 183 kts 12°
2026-05-09 15:22 51.54848 -71.61957 12834 ft 183 kts 12°
2026-05-09 15:22 51.56067 -71.61361 12841 ft 183 kts 12°
2026-05-09 15:22 51.57284 -71.60771 12842 ft 183 kts 11°
2026-05-09 15:23 51.58504 -71.60182 12845 ft 183 kts 11°
2026-05-09 15:23 51.59724 -71.59590 12844 ft 183 kts 11°
2026-05-09 15:23 51.60942 -71.58999 12846 ft 183 kts 11°
2026-05-09 15:23 51.62159 -71.58407 12844 ft 183 kts 11°
2026-05-09 15:24 51.63363 -71.57820 12841 ft 183 kts 11°
2026-05-09 15:24 51.64581 -71.57228 12840 ft 183 kts 11°
2026-05-09 15:24 51.65797 -71.56636 12839 ft 183 kts 11°
2026-05-09 15:24 51.67014 -71.56042 12839 ft 183 kts 11°
2026-05-09 15:25 51.68232 -71.55449 12844 ft 183 kts 11°
2026-05-09 15:25 51.69447 -71.54856 12843 ft 183 kts 11°
2026-05-09 15:25 51.70666 -71.54261 12843 ft 183 kts 11°
2026-05-09 15:26 51.73106 -71.53069 12848 ft 183 kts 11°
2026-05-09 15:26 51.74325 -71.52472 12842 ft 183 kts 11°
2026-05-09 15:26 51.75549 -71.51874 12841 ft 183 kts 11°
2026-05-09 15:26 51.76769 -71.51275 12841 ft 183 kts 11°
2026-05-09 15:27 51.77991 -71.50678 12845 ft 183 kts 11°
2026-05-09 15:27 51.79197 -71.50087 12846 ft 184 kts 11°
2026-05-09 15:27 51.80419 -71.49487 12843 ft 183 kts 11°
2026-05-09 15:27 51.81632 -71.48892 12850 ft 182 kts 11°
2026-05-09 15:28 51.82848 -71.48295 12842 ft 182 kts 11°
2026-05-09 15:28 51.84062 -71.47699 12841 ft 182 kts 11°
2026-05-09 15:28 51.85275 -71.47103 12841 ft 182 kts 11°
2026-05-09 15:28 51.86487 -71.46507 12840 ft 182 kts 11°
2026-05-09 15:29 51.87698 -71.45911 12846 ft 182 kts 11°
2026-05-09 15:29 51.88910 -71.45315 12839 ft 182 kts 11°
2026-05-09 15:29 51.90121 -71.44718 12837 ft 182 kts 11°
2026-05-09 15:29 51.91332 -71.44121 12839 ft 182 kts 11°
2026-05-09 15:30 51.92549 -71.43522 12840 ft 183 kts 11°
2026-05-09 15:30 51.93767 -71.42921 12849 ft 183 kts 11°
2026-05-09 15:30 51.94991 -71.42315 12854 ft 184 kts 11°
2026-05-09 15:30 51.96215 -71.41710 12845 ft 184 kts 11°
2026-05-09 15:31 51.97437 -71.41107 12847 ft 184 kts 11°
2026-05-09 15:31 51.98660 -71.40501 12842 ft 184 kts 11°
2026-05-09 15:31 51.99880 -71.39898 12847 ft 183 kts 11°
2026-05-09 15:31 52.01097 -71.39296 12840 ft 183 kts 11°
2026-05-09 15:32 52.02313 -71.38694 12839 ft 183 kts 11°
2026-05-09 15:32 52.03533 -71.38088 12837 ft 183 kts 11°
2026-05-09 15:32 52.04337 -71.37690 12845 ft 182 kts 11°
2026-05-09 15:32 52.05549 -71.37089 12836 ft 182 kts 11°
2026-05-09 15:33 52.06764 -71.36486 12835 ft 182 kts 11°
2026-05-09 15:33 52.08369 -71.35689 12837 ft 182 kts 11°
2026-05-09 15:33 52.09585 -71.35085 12835 ft 183 kts 11°
2026-05-09 15:33 52.10799 -71.34480 12835 ft 182 kts 11°
2026-05-09 15:34 52.11619 -71.34071 12842 ft 183 kts 11°
2026-05-09 15:34 52.13232 -71.33268 12838 ft 184 kts 12°
2026-05-09 15:34 52.14061 -71.32855 12839 ft 184 kts 11°
2026-05-09 15:34 52.15288 -71.32246 12844 ft 184 kts 12°
2026-05-09 15:35 52.16511 -71.31634 12848 ft 184 kts 12°
2026-05-09 15:35 52.17731 -71.31024 12836 ft 183 kts 11°
2026-05-09 15:35 52.18952 -71.30416 12836 ft 184 kts 11°
2026-05-09 15:35 52.20164 -71.29811 12835 ft 184 kts 11°
2026-05-09 15:36 52.21389 -71.29198 12834 ft 184 kts 11°
2026-05-09 15:36 52.22609 -71.28587 12833 ft 183 kts 11°
2026-05-09 15:36 52.23827 -71.27979 12831 ft 183 kts 11°
2026-05-09 15:36 52.25042 -71.27370 12834 ft 183 kts 12°
2026-05-09 15:37 52.26256 -71.26761 12836 ft 183 kts 12°
2026-05-09 15:37 52.27475 -71.26150 12846 ft 183 kts 12°
2026-05-09 15:37 52.28689 -71.25543 12838 ft 183 kts 12°
2026-05-09 15:37 52.29910 -71.24930 12840 ft 184 kts 12°
2026-05-09 15:38 52.31139 -71.24315 12832 ft 184 kts 12°
2026-05-09 15:38 52.32365 -71.23695 12841 ft 184 kts 12°
2026-05-09 15:38 52.33589 -71.23076 12838 ft 185 kts 12°
2026-05-09 15:38 52.34812 -71.22464 12830 ft 183 kts 12°
2026-05-09 15:39 52.36031 -71.21854 12834 ft 184 kts 12°
2026-05-09 15:39 52.37241 -71.21243 12833 ft 184 kts 12°
2026-05-09 15:39 52.38466 -71.20623 12833 ft 184 kts 12°
2026-05-09 15:39 52.39690 -71.20008 12833 ft 184 kts 12°
2026-05-09 15:40 52.40914 -71.19391 12831 ft 184 kts 12°
2026-05-09 15:40 52.42133 -71.18775 12831 ft 183 kts 12°
2026-05-09 15:40 52.43353 -71.18159 12828 ft 183 kts 12°
2026-05-09 15:40 52.44569 -71.17546 12827 ft 183 kts 12°
2026-05-09 15:41 52.45789 -71.16927 12827 ft 183 kts 12°
2026-05-09 15:41 52.47009 -71.16313 12827 ft 184 kts 12°
2026-05-09 15:41 52.48230 -71.15692 12825 ft 184 kts 12°
2026-05-09 15:41 52.49447 -71.15069 12836 ft 184 kts 14°
2026-05-09 15:42 52.50667 -71.14454 12829 ft 183 kts 13°
2026-05-09 15:42 52.51883 -71.13843 12826 ft 183 kts 13°
2026-05-09 15:42 52.53095 -71.13227 12822 ft 182 kts 13°
2026-05-09 15:42 52.54307 -71.12610 12822 ft 182 kts 13°
2026-05-09 15:43 52.55519 -71.11994 12835 ft 182 kts 13°
2026-05-09 15:43 52.56733 -71.11379 12823 ft 182 kts 13°
2026-05-09 15:43 52.57943 -71.10762 12823 ft 182 kts 13°
2026-05-09 15:43 52.59155 -71.10145 12823 ft 182 kts 13°
2026-05-09 15:44 52.60368 -71.09527 12822 ft 182 kts 13°
2026-05-09 15:44 52.61561 -71.08919 12822 ft 182 kts 13°
2026-05-09 15:44 52.62772 -71.08303 12822 ft 182 kts 13°
2026-05-09 15:44 52.63987 -71.07683 12821 ft 182 kts 13°
2026-05-09 15:45 52.65194 -71.07066 12817 ft 182 kts 13°
2026-05-09 15:45 52.66403 -71.06449 12817 ft 182 kts 13°
2026-05-09 15:45 52.67613 -71.05831 12817 ft 182 kts 13°
2026-05-09 15:45 52.68823 -71.05212 12817 ft 182 kts 13°
2026-05-09 15:46 52.70032 -71.04594 12816 ft 182 kts 13°
2026-05-09 15:46 52.71240 -71.03976 12817 ft 182 kts 13°
2026-05-09 15:46 52.72450 -71.03357 12818 ft 182 kts 15°
2026-05-09 15:46 52.73663 -71.02735 12817 ft 182 kts 15°
2026-05-09 15:47 52.74874 -71.02114 12815 ft 182 kts 15°
2026-05-09 15:47 52.76069 -71.01499 12816 ft 182 kts 15°
2026-05-09 15:47 52.77283 -71.00877 12815 ft 182 kts 14°
2026-05-09 15:47 52.78496 -71.00254 12814 ft 182 kts 15°
2026-05-09 15:48 52.79707 -70.99632 12814 ft 182 kts 15°
2026-05-09 15:48 52.80917 -70.99008 12813 ft 182 kts 15°
2026-05-09 15:48 52.82128 -70.98385 12816 ft 182 kts 15°
2026-05-09 15:48 52.83341 -70.97762 12816 ft 182 kts 15°
2026-05-09 15:49 52.84551 -70.97138 12818 ft 182 kts 15°
2026-05-09 15:49 52.85763 -70.96513 12818 ft 182 kts 15°
2026-05-09 15:49 52.86979 -70.95887 12818 ft 183 kts 15°
2026-05-09 15:49 52.88192 -70.95260 12818 ft 183 kts 15°
2026-05-09 15:50 52.89405 -70.94634 12818 ft 182 kts 15°
2026-05-09 15:50 52.90617 -70.94007 12817 ft 182 kts 15°
2026-05-09 15:50 52.91831 -70.93381 12817 ft 183 kts 15°
2026-05-09 15:50 52.93028 -70.92761 12816 ft 182 kts 15°
2026-05-09 15:51 52.94256 -70.92126 12818 ft 183 kts 15°
2026-05-09 15:51 52.95465 -70.91499 12831 ft 185 kts 17°
2026-05-09 15:51 52.96695 -70.90854 12829 ft 186 kts 17°
2026-05-09 15:51 52.97929 -70.90220 12827 ft 185 kts 16°
2026-05-09 15:52 53.00376 -70.88952 12826 ft 184 kts 16°
2026-05-09 15:52 53.01597 -70.88320 12830 ft 184 kts 17°
2026-05-09 15:52 53.02818 -70.87684 12829 ft 184 kts 17°
2026-05-09 15:53 53.04035 -70.87050 12825 ft 183 kts 17°
2026-05-09 15:53 53.05250 -70.86418 12825 ft 183 kts 17°
2026-05-09 15:53 53.06470 -70.85783 12825 ft 183 kts 17°
2026-05-09 15:53 53.07688 -70.85148 12823 ft 183 kts 17°
2026-05-09 15:54 53.08903 -70.84515 12824 ft 183 kts 17°
2026-05-09 15:54 53.10119 -70.83881 12824 ft 183 kts 17°
2026-05-09 15:54 53.11337 -70.83246 12823 ft 183 kts 17°
2026-05-09 15:54 53.12552 -70.82611 12823 ft 183 kts 17°
2026-05-09 15:55 53.13750 -70.81985 12821 ft 183 kts 17°
2026-05-09 15:55 53.14967 -70.81348 12820 ft 183 kts 17°
2026-05-09 15:55 53.16185 -70.80710 12819 ft 183 kts 17°
2026-05-09 15:55 53.17401 -70.80075 12820 ft 183 kts 17°
2026-05-09 15:56 53.18619 -70.79436 12823 ft 183 kts 17°
2026-05-09 15:56 53.19838 -70.78799 12824 ft 183 kts 18°
2026-05-09 15:56 53.21053 -70.78161 12822 ft 183 kts 18°
2026-05-09 15:56 53.22270 -70.77523 12822 ft 183 kts 18°
2026-05-09 15:57 53.23487 -70.76883 12818 ft 183 kts 18°
2026-05-09 15:57 53.24701 -70.76246 12818 ft 183 kts 18°
2026-05-09 15:57 53.25915 -70.75608 12817 ft 183 kts 18°
2026-05-09 15:57 53.27129 -70.74969 12817 ft 183 kts 18°
2026-05-09 15:58 53.28345 -70.74330 12817 ft 183 kts 18°
2026-05-09 15:58 53.29541 -70.73700 12816 ft 183 kts 18°
2026-05-09 15:58 53.30754 -70.73061 12816 ft 183 kts 18°
2026-05-09 15:58 53.31968 -70.72421 12815 ft 183 kts 18°
2026-05-09 15:59 53.33182 -70.71780 12816 ft 183 kts 18°
2026-05-09 15:59 53.34396 -70.71139 12816 ft 183 kts 18°
2026-05-09 15:59 53.35610 -70.70498 12816 ft 183 kts 18°
2026-05-09 15:59 53.36822 -70.69858 12817 ft 183 kts 18°
2026-05-09 16:00 53.38035 -70.69217 12822 ft 182 kts 18°
2026-05-09 16:00 53.38446 -70.69000 12821 ft 182 kts 18°
2026-05-09 16:00 53.40459 -70.67933 12820 ft 183 kts 18°
2026-05-09 16:00 53.41672 -70.67292 12820 ft 183 kts 18°
2026-05-09 16:01 53.42889 -70.66646 12821 ft 183 kts 18°
2026-05-09 16:01 53.44105 -70.66001 12824 ft 183 kts 18°
2026-05-09 16:01 53.45321 -70.65356 12824 ft 183 kts 18°
2026-05-09 16:01 53.46524 -70.64717 12824 ft 184 kts 18°
2026-05-09 16:02 53.47745 -70.64068 12825 ft 184 kts 18°
2026-05-09 16:02 53.50185 -70.62771 12824 ft 184 kts 18°
2026-05-09 16:02 53.51405 -70.62121 12823 ft 184 kts 18°
2026-05-09 16:03 53.52623 -70.61473 12823 ft 184 kts 18°
2026-05-09 16:03 53.53839 -70.60825 12823 ft 184 kts 18°
2026-05-09 16:03 53.55057 -70.60175 12819 ft 184 kts 18°
2026-05-09 16:03 53.56275 -70.59525 12819 ft 184 kts 18°
2026-05-09 16:04 53.57493 -70.58875 12813 ft 184 kts 18°
2026-05-09 16:04 53.58712 -70.58224 12813 ft 184 kts 17°
2026-05-09 16:04 53.59929 -70.57573 12813 ft 184 kts 18°
2026-05-09 16:04 53.61146 -70.56922 12813 ft 184 kts 18°
2026-05-09 16:05 53.62365 -70.56270 12816 ft 184 kts 18°
2026-05-09 16:05 53.63583 -70.55617 12815 ft 184 kts 18°
2026-05-09 16:05 53.64800 -70.54966 12815 ft 184 kts 18°
2026-05-09 16:05 53.66018 -70.54312 12816 ft 184 kts 18°
2026-05-09 16:06 53.67244 -70.53655 12815 ft 185 kts 17°
2026-05-09 16:06 53.68464 -70.52998 12813 ft 184 kts 17°
2026-05-09 16:06 53.69687 -70.52343 12814 ft 185 kts 17°
2026-05-09 16:06 53.70909 -70.51686 12813 ft 184 kts 17°
2026-05-09 16:07 53.72134 -70.51027 12813 ft 185 kts 17°
2026-05-09 16:07 53.73356 -70.50369 12813 ft 184 kts 17°
2026-05-09 16:07 53.74581 -70.49710 12813 ft 185 kts 17°
2026-05-09 16:07 53.75791 -70.49059 12813 ft 185 kts 17°
2026-05-09 16:08 53.77013 -70.48400 12810 ft 185 kts 17°
2026-05-09 16:08 53.78236 -70.47740 12810 ft 184 kts 17°
2026-05-09 16:08 53.79460 -70.47080 12809 ft 184 kts 17°
2026-05-09 16:08 53.80683 -70.46418 12809 ft 185 kts 17°
2026-05-09 16:09 53.81920 -70.45749 12699 ft 190 kts 17°
2026-05-09 16:09 53.83199 -70.45053 12547 ft 196 kts 17°
2026-05-09 16:09 53.84504 -70.44343 12396 ft 198 kts 17°
2026-05-09 16:09 53.85824 -70.43628 12243 ft 200 kts 17°
2026-05-09 16:10 53.87154 -70.42908 12085 ft 201 kts 17°
2026-05-09 16:10 53.88487 -70.42186 11930 ft 202 kts 17°
2026-05-09 16:10 53.89826 -70.41459 11772 ft 202 kts 17°
2026-05-09 16:10 53.91165 -70.40732 11614 ft 202 kts 17°
2026-05-09 16:11 53.92503 -70.39998 11456 ft 202 kts 17°
2026-05-09 16:11 53.93844 -70.39273 11298 ft 202 kts 17°
2026-05-09 16:11 53.95161 -70.38566 11132 ft 193 kts 16°
2026-05-09 16:11 53.96422 -70.37892 10959 ft 187 kts 16°
2026-05-09 16:12 53.97653 -70.37225 10789 ft 184 kts 17°
2026-05-09 16:12 53.98863 -70.36566 10624 ft 182 kts 17°
2026-05-09 16:12 54.00061 -70.35912 10462 ft 180 kts 17°
2026-05-09 16:12 54.01252 -70.35262 10304 ft 179 kts 17°
2026-05-09 16:13 54.02436 -70.34616 10151 ft 179 kts 17°
2026-05-09 16:13 54.03619 -70.33967 9999 ft 178 kts 17°
2026-05-09 16:13 54.04784 -70.33330 9846 ft 178 kts 17°
2026-05-09 16:13 54.05961 -70.32688 9694 ft 177 kts 17°
2026-05-09 16:14 54.07135 -70.32044 9528 ft 177 kts 17°
2026-05-09 16:14 54.08307 -70.31401 9362 ft 177 kts 17°
2026-05-09 16:14 54.09476 -70.30762 9196 ft 176 kts 17°
2026-05-09 16:14 54.10645 -70.30121 9032 ft 176 kts 17°
2026-05-09 16:15 54.11814 -70.29477 8864 ft 176 kts 17°
2026-05-09 16:15 54.12979 -70.28837 8704 ft 176 kts 17°
2026-05-09 16:15 54.14148 -70.28197 8541 ft 176 kts 17°
2026-05-09 16:15 54.15314 -70.27556 8389 ft 176 kts 17°
2026-05-09 16:16 54.16481 -70.26915 8225 ft 177 kts 17°
2026-05-09 16:16 54.17650 -70.26270 8065 ft 176 kts 17°
2026-05-09 16:16 54.18819 -70.25626 7908 ft 177 kts 17°
2026-05-09 16:16 54.19989 -70.24980 7750 ft 177 kts 17°
2026-05-09 16:17 54.21157 -70.24336 7593 ft 176 kts 17°
2026-05-09 16:17 54.22321 -70.23695 7437 ft 175 kts 17°
2026-05-09 16:17 54.23474 -70.23065 7277 ft 174 kts 17°
2026-05-09 16:17 54.24620 -70.22429 7121 ft 173 kts 17°
2026-05-09 16:18 54.25760 -70.21797 6962 ft 172 kts 17°
2026-05-09 16:18 54.26897 -70.21170 6809 ft 172 kts 18°
2026-05-09 16:18 54.28021 -70.20548 6657 ft 172 kts 17°
2026-05-09 16:18 54.29171 -70.19911 6502 ft 171 kts 17°
2026-05-09 16:19 54.30290 -70.19291 6351 ft 171 kts 17°
2026-05-09 16:19 54.31420 -70.18666 6196 ft 170 kts 18°
2026-05-09 16:19 54.32543 -70.18043 6033 ft 169 kts 18°
2026-05-09 16:19 54.33664 -70.17421 5870 ft 169 kts 18°
2026-05-09 16:20 54.34783 -70.16800 5709 ft 168 kts 18°
2026-05-09 16:20 54.35897 -70.16180 5550 ft 168 kts 18°
2026-05-09 16:20 54.37007 -70.15565 5391 ft 168 kts 18°
2026-05-09 16:20 54.38116 -70.14946 5232 ft 168 kts 18°
2026-05-09 16:21 54.38852 -70.14537 5127 ft 167 kts 18°
2026-05-09 16:21 54.39955 -70.13922 4970 ft 167 kts 18°
2026-05-09 16:21 54.41058 -70.13309 4814 ft 166 kts 18°
2026-05-09 16:21 54.42156 -70.12696 4658 ft 166 kts 18°
2026-05-09 16:22 54.43254 -70.12085 4496 ft 166 kts 19°
2026-05-09 16:22 54.44350 -70.11472 4331 ft 165 kts 18°
2026-05-09 16:22 54.45444 -70.10863 4174 ft 165 kts 19°
2026-05-09 16:22 54.46536 -70.10252 4012 ft 165 kts 18°
2026-05-09 16:23 54.47624 -70.09644 3858 ft 164 kts 19°
2026-05-09 16:23 54.48704 -70.09040 3815 ft 163 kts 19°
2026-05-09 16:23 54.49778 -70.08430 3817 ft 167 kts 19°
2026-05-09 16:23 54.50884 -70.07805 3824 ft 168 kts 19°
2026-05-09 16:24 54.51996 -70.07179 3824 ft 168 kts 18°
2026-05-09 16:24 54.53115 -70.06551 3824 ft 171 kts 19°
2026-05-09 16:24 54.54241 -70.05919 3827 ft 170 kts 19°
2026-05-09 16:24 54.55371 -70.05284 3820 ft 171 kts 19°
2026-05-09 16:25 54.56499 -70.04652 3820 ft 171 kts 19°
2026-05-09 16:25 54.57629 -70.04018 3812 ft 171 kts 19°
2026-05-09 16:25 54.58760 -70.03383 3819 ft 171 kts 19°
2026-05-09 16:25 54.59894 -70.02744 3820 ft 171 kts 19°
2026-05-09 16:26 54.61026 -70.02106 3821 ft 171 kts 19°
2026-05-09 16:26 54.62158 -70.01469 3821 ft 171 kts 19°
2026-05-09 16:26 54.63291 -70.00832 3820 ft 171 kts 19°
2026-05-09 16:26 54.64421 -70.00195 3814 ft 171 kts 19°
2026-05-09 16:27 54.65551 -69.99557 3813 ft 171 kts 18°
2026-05-09 16:27 54.66683 -69.98919 3809 ft 171 kts 19°
2026-05-09 16:27 54.67814 -69.98281 3811 ft 171 kts 19°
2026-05-09 16:27 54.68945 -69.97641 3810 ft 171 kts 19°
2026-05-09 16:28 54.70076 -69.97001 3811 ft 171 kts 19°
2026-05-09 16:28 54.71209 -69.96361 3811 ft 171 kts 19°
2026-05-09 16:28 54.72341 -69.95720 3807 ft 171 kts 19°
2026-05-09 16:28 54.73470 -69.95082 3809 ft 171 kts 19°
2026-05-09 16:29 54.74602 -69.94439 3807 ft 171 kts 19°
2026-05-09 16:29 54.75732 -69.93798 3806 ft 171 kts 19°
2026-05-09 16:29 54.76865 -69.93155 3804 ft 171 kts 19°
2026-05-09 16:29 54.77980 -69.92522 3805 ft 171 kts 19°
2026-05-09 16:30 54.79093 -69.91822 3856 ft 166 kts 31°
2026-05-09 16:30 54.79855 -69.90482 3851 ft 154 kts 59°
2026-05-09 16:30 54.80472 -69.88990 3693 ft 150 kts 59°
2026-05-09 16:30 54.81045 -69.87560 3554 ft 139 kts 60°
2026-05-09 16:31 54.81576 -69.86214 3426 ft 132 kts 60°
2026-05-09 16:31 54.82116 -69.84920 3259 ft 133 kts 58°
2026-05-09 16:31 54.82680 -69.83658 3106 ft 136 kts 57°
2026-05-09 16:31 54.83374 -69.82518 2926 ft 144 kts 21°
2026-05-09 16:32 54.84188 -69.82974 2823 ft 122 kts 287°
2026-05-09 16:32 54.84155 -69.83859 2719 ft 110 kts 245°
2026-05-09 16:32 54.83928 -69.85534 2196 ft 100 kts 257°
2026-05-09 16:32 54.83860 -69.86659 1952 ft 85 kts 261°
2026-05-09 16:33 54.83829 -69.87685 1764 ft 84 kts 262°
2026-05-09 16:33 54.83809 -69.88553 1705 ft 56 kts 264°
2026-05-09 16:33 54.83788 -69.88937 1708 ft 20 kts 260°
2026-05-09 16:33 54.83784 -69.89081 1705 ft 7 kts 271°
2026-05-09 16:34 54.83787 -69.89145 1703 ft 14 kts 339°
2026-05-09 16:34 54.83809 -69.88988 1709 ft 0 kts 92°
2026-05-09 16:34 54.83821 -69.88963 1709 ft 6 kts 31°
2026-05-09 16:35 54.83846 -69.88944 1709 ft 0 kts 21°
2026-05-09 16:40 54.83847 -69.88941 1709 ft 3 kts 54°
2026-05-09 16:42 54.83812 -69.88436 1706 ft 0 kts 270°
2026-05-09 16:42 54.83803 -69.88736 1708 ft 50 kts 267°
2026-05-09 16:43 54.83787 -69.89570 1774 ft 79 kts 268°
2026-05-09 16:43 54.83832 -69.90594 1925 ft 90 kts 265°
2026-05-09 16:43 54.83880 -69.91713 2087 ft 101 kts 276°
2026-05-09 16:43 54.84291 -69.92684 2368 ft 106 kts 334°
2026-05-09 16:44 54.85041 -69.92648 2569 ft 114 kts 26°
2026-05-09 16:44 54.85724 -69.91884 2746 ft 127 kts 38°
2026-05-09 16:44 54.86502 -69.91003 2858 ft 139 kts 46°
2026-05-09 16:44 54.87125 -69.89687 3007 ft 145 kts 49°
2026-05-09 16:45 54.87998 -69.88788 3189 ft 149 kts 17°
2026-05-09 16:45 54.89006 -69.88359 3393 ft 150 kts 14°
2026-05-09 16:45 54.90022 -69.87928 3605 ft 150 kts 14°
2026-05-09 16:45 54.91032 -69.87506 3808 ft 152 kts 13°
2026-05-09 16:46 54.92058 -69.87078 4027 ft 151 kts 13°
2026-05-09 16:46 54.93084 -69.86647 4240 ft 152 kts 13°
2026-05-09 16:46 54.94109 -69.86221 4495 ft 149 kts 12°
2026-05-09 16:46 54.95104 -69.85804 4766 ft 145 kts 13°
2026-05-09 16:47 54.96071 -69.85403 5044 ft 142 kts 12°
2026-05-09 16:47 54.97022 -69.85003 5311 ft 140 kts 12°
2026-05-09 16:47 54.97957 -69.84613 5591 ft 137 kts 12°
2026-05-09 16:47 54.98874 -69.84227 5874 ft 135 kts 12°
2026-05-09 16:48 54.99783 -69.83845 6158 ft 134 kts 12°
2026-05-09 16:48 55.00688 -69.83463 6428 ft 133 kts 12°
2026-05-09 16:48 55.01587 -69.83086 6697 ft 132 kts 12°
2026-05-09 16:48 55.02474 -69.82712 6964 ft 130 kts 12°
2026-05-09 16:49 55.03340 -69.82351 7233 ft 126 kts 12°
2026-05-09 16:49 55.04187 -69.81993 7499 ft 124 kts 11°
2026-05-09 16:49 55.05019 -69.81644 7734 ft 125 kts 11°
2026-05-09 16:50 55.06790 -69.80892 8127 ft 136 kts 11°
2026-05-09 16:50 55.07720 -69.80499 8336 ft 139 kts 12°
2026-05-09 16:50 55.08672 -69.80098 8542 ft 143 kts 11°
2026-05-09 16:50 55.09644 -69.79685 8749 ft 145 kts 11°
2026-05-09 16:51 55.10634 -69.79269 8953 ft 147 kts 11°
2026-05-09 16:51 55.11637 -69.78843 9157 ft 149 kts 11°
2026-05-09 16:51 55.12658 -69.78411 9363 ft 152 kts 11°
2026-05-09 16:51 55.13696 -69.77972 9566 ft 155 kts 12°
2026-05-09 16:52 55.14747 -69.77524 9757 ft 156 kts 12°
2026-05-09 16:52 55.15805 -69.77077 9937 ft 157 kts 12°
2026-05-09 16:52 55.16860 -69.76629 10115 ft 158 kts 12°
2026-05-09 16:52 55.17933 -69.76174 10296 ft 160 kts 12°
2026-05-09 16:53 55.19017 -69.75712 10486 ft 161 kts 12°
2026-05-09 16:53 55.20111 -69.75248 10665 ft 162 kts 12°
2026-05-09 16:53 55.21203 -69.74785 10843 ft 162 kts 12°
2026-05-09 16:53 55.22300 -69.74318 11028 ft 162 kts 12°
2026-05-09 16:54 55.23399 -69.73851 11207 ft 163 kts 12°
2026-05-09 16:54 55.24501 -69.73382 11397 ft 163 kts 12°
2026-05-09 16:54 55.25604 -69.72912 11576 ft 164 kts 12°
2026-05-09 16:54 55.26708 -69.72441 11762 ft 163 kts 12°
2026-05-09 16:55 55.27814 -69.71970 11945 ft 164 kts 12°
2026-05-09 16:55 55.28920 -69.71498 12133 ft 164 kts 12°
2026-05-09 16:55 55.30025 -69.71027 12318 ft 163 kts 12°
2026-05-09 16:55 55.31131 -69.70554 12506 ft 164 kts 12°
2026-05-09 16:56 55.32237 -69.70081 12693 ft 164 kts 12°
2026-05-09 16:56 55.33359 -69.69601 12803 ft 172 kts 13°
2026-05-09 16:56 55.34554 -69.69083 12808 ft 181 kts 13°
2026-05-09 16:56 55.35802 -69.68545 12806 ft 188 kts 13°
2026-05-09 16:57 55.37090 -69.67993 12808 ft 193 kts 13°
2026-05-09 16:57 55.38405 -69.67430 12805 ft 196 kts 13°
2026-05-09 16:57 55.39734 -69.66860 12808 ft 198 kts 13°
2026-05-09 16:57 55.41079 -69.66282 12804 ft 199 kts 13°
2026-05-09 16:58 55.42429 -69.65701 12805 ft 200 kts 13°
2026-05-09 16:58 55.43784 -69.65119 12806 ft 201 kts 13°
2026-05-09 16:58 55.45150 -69.64531 12804 ft 203 kts 13°
2026-05-09 16:58 55.46502 -69.63947 12803 ft 203 kts 13°
2026-05-09 16:59 55.47893 -69.63347 12805 ft 203 kts 13°
2026-05-09 16:59 55.49265 -69.62756 12805 ft 203 kts 13°
2026-05-09 16:59 55.50621 -69.62172 12802 ft 203 kts 13°
2026-05-09 16:59 55.51993 -69.61578 12804 ft 203 kts 13°
2026-05-09 17:00 55.53366 -69.60986 12801 ft 203 kts 13°
2026-05-09 17:00 55.54735 -69.60394 12799 ft 202 kts 13°
2026-05-09 17:00 55.56102 -69.59802 12799 ft 202 kts 13°
2026-05-09 17:00 55.57473 -69.59207 12795 ft 203 kts 13°
2026-05-09 17:01 55.58844 -69.58611 12798 ft 202 kts 13°
2026-05-09 17:01 55.60214 -69.58020 12796 ft 203 kts 13°
2026-05-09 17:01 55.61582 -69.57424 12798 ft 203 kts 13°
2026-05-09 17:01 55.62958 -69.56827 12795 ft 203 kts 13°
2026-05-09 17:02 55.64326 -69.56231 12795 ft 203 kts 13°
2026-05-09 17:02 55.65681 -69.55642 12794 ft 203 kts 13°
2026-05-09 17:02 55.67048 -69.55047 12794 ft 202 kts 13°
2026-05-09 17:02 55.68415 -69.54451 12792 ft 203 kts 13°
2026-05-09 17:03 55.69784 -69.53855 12793 ft 202 kts 13°
2026-05-09 17:04 55.79381 -69.49658 12794 ft 204 kts 13°
2026-05-09 17:05 55.80762 -69.49053 12791 ft 204 kts 13°
2026-05-09 17:05 55.82146 -69.48445 12789 ft 204 kts 13°
2026-05-09 17:05 55.83521 -69.47841 12787 ft 203 kts 13°
2026-05-09 17:05 55.84891 -69.47239 12786 ft 203 kts 13°
2026-05-09 17:06 55.86262 -69.46637 12783 ft 203 kts 13°
2026-05-09 17:06 55.87630 -69.46034 12778 ft 203 kts 13°
2026-05-09 17:06 55.88984 -69.45438 12779 ft 203 kts 13°
2026-05-09 17:06 55.90356 -69.44832 12778 ft 203 kts 13°
2026-05-09 17:07 55.91728 -69.44228 12778 ft 203 kts 13°
2026-05-09 17:07 55.92190 -69.44024 12779 ft 203 kts 13°
2026-05-09 17:07 55.94488 -69.43007 12779 ft 203 kts 12°
2026-05-09 17:07 55.95840 -69.42412 12778 ft 203 kts 12°
2026-05-09 17:08 55.97210 -69.41806 12777 ft 203 kts 12°
2026-05-09 17:08 55.99957 -69.40589 12770 ft 203 kts 13°
2026-05-09 17:08 56.01327 -69.39981 12771 ft 203 kts 13°
2026-05-09 17:09 56.02253 -69.39570 12772 ft 203 kts 12°
2026-05-09 17:09 56.03606 -69.38971 12772 ft 203 kts 12°
2026-05-09 17:09 56.04976 -69.38363 12773 ft 203 kts 12°
2026-05-09 17:09 56.06343 -69.37754 12774 ft 203 kts 13°
2026-05-09 17:10 56.07714 -69.37143 12768 ft 203 kts 13°
2026-05-09 17:10 56.09081 -69.36534 12769 ft 203 kts 13°
2026-05-09 17:10 56.10453 -69.35924 12769 ft 203 kts 13°
2026-05-09 17:10 56.11822 -69.35314 12768 ft 203 kts 13°
2026-05-09 17:11 56.13195 -69.34702 12774 ft 204 kts 13°
2026-05-09 17:11 56.14573 -69.34085 12773 ft 204 kts 13°
2026-05-09 17:11 56.15952 -69.33468 12772 ft 204 kts 13°
2026-05-09 17:11 56.17325 -69.32855 12772 ft 203 kts 13°
2026-05-09 17:12 56.18694 -69.32243 12771 ft 203 kts 12°
2026-05-09 17:12 56.20067 -69.31628 12766 ft 204 kts 12°
2026-05-09 17:12 56.21446 -69.31011 12765 ft 204 kts 12°
2026-05-09 17:12 56.22826 -69.30391 12767 ft 205 kts 12°
2026-05-09 17:13 56.24211 -69.29769 12769 ft 205 kts 12°
2026-05-09 17:13 56.25594 -69.29148 12769 ft 205 kts 12°
2026-05-09 17:13 56.26978 -69.28526 12767 ft 205 kts 12°
2026-05-09 17:13 56.28359 -69.27905 12771 ft 205 kts 12°
2026-05-09 17:14 56.29747 -69.27280 12765 ft 205 kts 12°
2026-05-09 17:14 56.31137 -69.26654 12765 ft 206 kts 12°
2026-05-09 17:14 56.32523 -69.26028 12766 ft 205 kts 12°
2026-05-09 17:14 56.33905 -69.25405 12766 ft 206 kts 12°
2026-05-09 17:15 56.35293 -69.24778 12766 ft 206 kts 12°
2026-05-09 17:15 56.36681 -69.24152 12764 ft 205 kts 12°
2026-05-09 17:15 56.38045 -69.23534 12764 ft 205 kts 12°
2026-05-09 17:15 56.39430 -69.22908 12764 ft 205 kts 12°
2026-05-09 17:16 56.40817 -69.22280 12763 ft 205 kts 12°
2026-05-09 17:17 56.50463 -69.17899 12765 ft 205 kts 12°
2026-05-09 17:18 56.51849 -69.17267 12764 ft 205 kts 12°
2026-05-09 17:18 56.53234 -69.16636 12764 ft 205 kts 12°
2026-05-09 17:18 56.54619 -69.16003 12763 ft 205 kts 12°
2026-05-09 17:18 56.56005 -69.15369 12763 ft 205 kts 12°
2026-05-09 17:19 56.57389 -69.14738 12759 ft 205 kts 12°
2026-05-09 17:19 56.58773 -69.14106 12760 ft 205 kts 12°
2026-05-09 17:19 56.60157 -69.13472 12757 ft 205 kts 12°
2026-05-09 17:19 56.61539 -69.12839 12756 ft 205 kts 12°
2026-05-09 17:20 56.62920 -69.12206 12759 ft 205 kts 12°
2026-05-09 17:20 56.64302 -69.11573 12759 ft 205 kts 12°
2026-05-09 17:20 56.65683 -69.10938 12754 ft 205 kts 12°
2026-05-09 17:20 56.67064 -69.10303 12753 ft 205 kts 12°
2026-05-09 17:21 56.68427 -69.09677 12752 ft 205 kts 12°
2026-05-09 17:21 56.69807 -69.09042 12752 ft 205 kts 12°
2026-05-09 17:21 56.71188 -69.08405 12762 ft 205 kts 11°
2026-05-09 17:21 56.72589 -69.07767 12763 ft 205 kts 11°
2026-05-09 17:22 56.73951 -69.07133 12764 ft 205 kts 11°
2026-05-09 17:22 56.75330 -69.06494 12764 ft 204 kts 11°
2026-05-09 17:22 56.76708 -69.05858 12763 ft 204 kts 11°
2026-05-09 17:22 56.78086 -69.05223 12766 ft 204 kts 11°
2026-05-09 17:23 56.79466 -69.04583 12760 ft 205 kts 11°
2026-05-09 17:23 56.80846 -69.03943 12758 ft 204 kts 11°
2026-05-09 17:23 56.82223 -69.03307 12758 ft 204 kts 11°
2026-05-09 17:23 56.83599 -69.02671 12758 ft 204 kts 11°
2026-05-09 17:25 56.90472 -68.99476 12755 ft 204 kts 11°
2026-05-09 17:25 56.91848 -68.98835 12754 ft 204 kts 11°
2026-05-09 17:25 56.93225 -68.98193 12753 ft 204 kts 11°
2026-05-09 17:25 56.94602 -68.97552 12753 ft 204 kts 11°
2026-05-09 17:26 56.95978 -68.96909 12749 ft 204 kts 11°
2026-05-09 17:26 56.97352 -68.96268 12750 ft 204 kts 11°
2026-05-09 17:26 56.98725 -68.95626 12769 ft 203 kts 12°
2026-05-09 17:26 57.00090 -68.94984 12768 ft 202 kts 12°
2026-05-09 17:27 57.01456 -68.94346 12769 ft 203 kts 12°
2026-05-09 17:27 57.02819 -68.93709 12767 ft 202 kts 12°
2026-05-09 17:27 57.04181 -68.93070 12768 ft 202 kts 12°
2026-05-09 17:27 57.05541 -68.92433 12767 ft 202 kts 12°
2026-05-09 17:28 57.06902 -68.91795 12763 ft 202 kts 12°
2026-05-09 17:28 57.08263 -68.91153 12761 ft 202 kts 12°
2026-05-09 17:28 57.09623 -68.90513 12761 ft 201 kts 12°
2026-05-09 17:28 57.10982 -68.89875 12761 ft 201 kts 12°
2026-05-09 17:29 57.12323 -68.89242 12763 ft 202 kts 12°
2026-05-09 17:29 57.13684 -68.88600 12763 ft 202 kts 12°
2026-05-09 17:29 57.15044 -68.87960 12764 ft 203 kts 12°
2026-05-09 17:29 57.16408 -68.87316 12761 ft 202 kts 12°
2026-05-09 17:30 57.17769 -68.86671 12759 ft 202 kts 12°
2026-05-09 17:30 57.19134 -68.86027 12758 ft 202 kts 12°
2026-05-09 17:30 57.20494 -68.85383 12758 ft 202 kts 12°
2026-05-09 17:30 57.21856 -68.84739 12758 ft 202 kts 12°
2026-05-09 17:31 57.23215 -68.84095 12755 ft 202 kts 12°
2026-05-09 17:31 57.24574 -68.83448 12763 ft 201 kts 12°
2026-05-09 17:32 57.29942 -68.80902 12925 ft 193 kts 12°
2026-05-09 17:32 57.31230 -68.80292 13020 ft 191 kts 12°
2026-05-09 17:32 57.32530 -68.79672 13014 ft 194 kts 12°
2026-05-09 17:33 57.33845 -68.79043 13009 ft 196 kts 12°
2026-05-09 17:33 57.35155 -68.78408 13018 ft 198 kts 14°
2026-05-09 17:33 57.36439 -68.77377 13022 ft 200 kts 27°
2026-05-09 17:33 57.37677 -68.76178 12892 ft 207 kts 26°
2026-05-09 17:34 57.38990 -68.75019 12738 ft 211 kts 24°
2026-05-09 17:35 57.46734 -68.68377 11745 ft 200 kts 24°
2026-05-09 17:35 57.47992 -68.67288 11584 ft 199 kts 24°
2026-05-09 17:36 57.49246 -68.66204 11428 ft 198 kts 24°
2026-05-09 17:36 57.50494 -68.65122 11269 ft 198 kts 24°
2026-05-09 17:36 57.51738 -68.64043 11109 ft 196 kts 24°
2026-05-09 17:36 57.52973 -68.62973 10956 ft 196 kts 24°
2026-05-09 17:37 57.54208 -68.61901 10800 ft 195 kts 24°
2026-05-09 17:37 57.55437 -68.60832 10646 ft 195 kts 24°
2026-05-09 17:37 57.56649 -68.59779 10490 ft 194 kts 24°
2026-05-09 17:37 57.57889 -68.58700 10338 ft 194 kts 24°
2026-05-09 17:38 57.59094 -68.57650 10180 ft 194 kts 24°
2026-05-09 17:38 57.60313 -68.56588 10027 ft 193 kts 24°
2026-05-09 17:38 57.61527 -68.55529 9875 ft 192 kts 24°
2026-05-09 17:39 57.63945 -68.53419 9562 ft 191 kts 24°
2026-05-09 17:39 57.65151 -68.52364 9397 ft 192 kts 24°
2026-05-09 17:39 57.66359 -68.51308 9229 ft 191 kts 23°
2026-05-09 17:39 57.67563 -68.50255 9065 ft 191 kts 24°
2026-05-09 17:40 57.68767 -68.49200 8902 ft 191 kts 24°
2026-05-09 17:40 57.69966 -68.48149 8738 ft 190 kts 24°
2026-05-09 17:40 57.71160 -68.47101 8575 ft 189 kts 24°
2026-05-09 17:40 57.72353 -68.46054 8412 ft 189 kts 24°
2026-05-09 17:41 57.73543 -68.45009 8251 ft 189 kts 24°
2026-05-09 17:41 57.74730 -68.43966 8097 ft 188 kts 24°
2026-05-09 17:41 57.75913 -68.42925 7927 ft 188 kts 24°
2026-05-09 17:41 57.77099 -68.41881 7770 ft 189 kts 24°
2026-05-09 17:42 57.78271 -68.40848 7612 ft 189 kts 24°
2026-05-09 17:42 57.79458 -68.39801 7453 ft 188 kts 24°
2026-05-09 17:42 57.80642 -68.38757 7295 ft 187 kts 24°
2026-05-09 17:42 57.81820 -68.37716 7141 ft 187 kts 24°
2026-05-09 17:43 57.83001 -68.36674 6989 ft 188 kts 24°
2026-05-09 17:43 57.84181 -68.35628 6826 ft 187 kts 24°
2026-05-09 17:43 57.85354 -68.34589 6670 ft 186 kts 24°
2026-05-09 17:43 57.86523 -68.33556 6512 ft 185 kts 24°
2026-05-09 17:44 57.87683 -68.32530 6361 ft 184 kts 24°
2026-05-09 17:44 57.88841 -68.31501 6204 ft 184 kts 23°
2026-05-09 17:44 57.89997 -68.30476 6045 ft 183 kts 24°
2026-05-09 17:44 57.91150 -68.29452 5890 ft 183 kts 24°
2026-05-09 17:45 57.92307 -68.28423 5722 ft 184 kts 24°
2026-05-09 17:45 57.93461 -68.27400 5562 ft 183 kts 24°
2026-05-09 17:45 57.94607 -68.26380 5397 ft 177 kts 23°
2026-05-09 17:45 57.95669 -68.25444 5209 ft 162 kts 22°
2026-05-09 17:46 57.96662 -68.24569 5018 ft 154 kts 22°
2026-05-09 17:46 57.97619 -68.23722 4831 ft 150 kts 22°
2026-05-09 17:46 57.98557 -68.22887 4655 ft 148 kts 23°
2026-05-09 17:46 57.99479 -68.22063 4484 ft 145 kts 23°
2026-05-09 17:47 58.00387 -68.21253 4311 ft 144 kts 22°
2026-05-09 17:47 58.01296 -68.20441 4159 ft 144 kts 23°
2026-05-09 17:47 58.02197 -68.19629 3995 ft 143 kts 22°
2026-05-09 17:47 58.03093 -68.18832 3834 ft 142 kts 22°
2026-05-09 17:48 58.03982 -68.18036 3667 ft 141 kts 22°
2026-05-09 17:48 58.04865 -68.17245 3513 ft 140 kts 22°
2026-05-09 17:48 58.05745 -68.16455 3352 ft 140 kts 22°
2026-05-09 17:48 58.06624 -68.15667 3200 ft 141 kts 22°
2026-05-09 17:49 58.07511 -68.14871 3045 ft 141 kts 22°
2026-05-09 17:49 58.08398 -68.14075 2893 ft 141 kts 22°
2026-05-09 17:49 58.09284 -68.13280 2736 ft 141 kts 22°
2026-05-09 17:49 58.10169 -68.12483 2582 ft 141 kts 21°
2026-05-09 17:50 58.11053 -68.11684 2427 ft 140 kts 23°
2026-05-09 17:50 58.12817 -68.10103 2122 ft 141 kts 22°
2026-05-09 17:50 58.13416 -68.09566 2007 ft 141 kts 21°
2026-05-09 17:51 58.14584 -68.08513 1805 ft 141 kts 22°
2026-05-09 17:51 58.15476 -68.07689 1639 ft 143 kts 22°
2026-05-09 17:51 58.16368 -68.06901 1507 ft 139 kts 22°
2026-05-09 17:51 58.17215 -68.06151 1492 ft 131 kts 20°
2026-05-09 17:52 58.18014 -68.05435 1491 ft 124 kts 22°
2026-05-09 17:52 58.18801 -68.04980 1487 ft 114 kts 349°
2026-05-09 17:52 58.19430 -68.05601 1495 ft 97 kts 302°
2026-05-09 17:52 58.19871 -68.06570 1504 ft 101 kts 303°
2026-05-09 17:53 58.20366 -68.07616 1522 ft 111 kts 302°
2026-05-09 17:53 58.20908 -68.08730 1518 ft 117 kts 305°
2026-05-09 17:53 58.21461 -68.09886 1511 ft 120 kts 304°
2026-05-09 17:53 58.22025 -68.11070 1514 ft 122 kts 304°
2026-05-09 17:54 58.22592 -68.12261 1511 ft 124 kts 305°
2026-05-09 17:54 58.23172 -68.13473 1512 ft 124 kts 305°
2026-05-09 17:54 58.23759 -68.14702 1509 ft 125 kts 304°
2026-05-09 17:54 58.24110 -68.16065 1514 ft 108 kts 268°
2026-05-09 17:55 58.23908 -68.17325 1497 ft 95 kts 233°
2026-05-09 17:55 58.23448 -68.18141 1491 ft 87 kts 221°
2026-05-09 17:55 58.22990 -68.18920 1497 ft 92 kts 223°
2026-05-09 17:55 58.22677 -68.19457 1500 ft 92 kts 224°
2026-05-09 17:56 58.22200 -68.20279 1500 ft 94 kts 223°
2026-05-09 17:56 58.21714 -68.21119 1507 ft 94 kts 224°
2026-05-09 17:56 58.21232 -68.21946 1507 ft 92 kts 224°
2026-05-09 17:57 58.20266 -68.23604 1506 ft 95 kts 224°
2026-05-09 17:57 58.19774 -68.24443 1512 ft 96 kts 224°
2026-05-09 17:57 58.19281 -68.25301 1508 ft 96 kts 224°
2026-05-09 17:57 58.18786 -68.26148 1506 ft 96 kts 223°
2026-05-09 17:58 58.18296 -68.26995 1499 ft 93 kts 225°
2026-05-09 17:58 58.17817 -68.27812 1497 ft 94 kts 224°
2026-05-09 17:58 58.17328 -68.28646 1494 ft 95 kts 225°
2026-05-09 17:58 58.16831 -68.29496 1503 ft 98 kts 225°
2026-05-09 17:59 58.16326 -68.30365 1500 ft 97 kts 224°
2026-05-09 17:59 58.15828 -68.31220 1497 ft 97 kts 224°
2026-05-09 17:59 58.15325 -68.32080 1493 ft 97 kts 225°
2026-05-09 17:59 58.14826 -68.32936 1497 ft 97 kts 225°
2026-05-09 18:00 58.14308 -68.33824 1411 ft 104 kts 224°
2026-05-09 18:00 58.13779 -68.34731 1295 ft 99 kts 224°
2026-05-09 18:00 58.13281 -68.35580 1138 ft 97 kts 223°
2026-05-09 18:00 58.12772 -68.36447 981 ft 99 kts 224°
2026-05-09 18:01 58.12258 -68.37310 843 ft 97 kts 222°
2026-05-09 18:01 58.11747 -68.38197 700 ft 102 kts 224°
2026-05-09 18:01 58.11219 -68.39076 564 ft 102 kts 221°
2026-05-09 18:01 58.10691 -68.39993 418 ft 101 kts 223°
2026-05-09 18:02 58.10182 -68.40836 289 ft 91 kts 223°
2026-05-09 18:02 58.09755 -68.41569 216 ft 75 kts 224°
2026-05-09 18:02 58.09405 -68.42170 152 ft 56 kts 224°
2026-05-09 18:02 58.09178 -68.42574 138 ft 31 kts 226°
2026-05-09 18:03 58.09076 -68.42759 140 ft 12 kts 219°
2026-05-09 18:03 58.09047 -68.42786 142 ft 9 kts 77°
2026-05-09 18:03 58.09149 -68.42603 140 ft 30 kts 44°
2026-05-09 18:03 58.09380 -68.42213 142 ft 43 kts 42°
2026-05-09 18:04 58.09560 -68.41916 142 ft 27 kts 40°
2026-05-09 18:04 58.09676 -68.41731 138 ft 18 kts 35°
2026-05-09 18:04 58.09762 -68.41784 135 ft 20 kts 317°
2026-05-09 18:04 58.09777 -68.41809 132 ft 8 kts 319°
2026-05-09 18:05 58.09838 -68.41866 122 ft 5 kts 334°
2026-05-09 18:05 58.09900 -68.41920 117 ft 9 kts 11°
2026-05-09 18:05 58.09918 -68.41913 120 ft 0 kts 12°